Regional Weather Roundup
Issued by NWS

Home | Current Version | Previous Version | Graphics & Text | Print | Product List | Glossary Off
Versions: 1 2 3 4 5 6 7 8 9 10 11 12 13 14 15 16 17 18 19 20 21 22 23 24 25 26 27 28 29 30 31 32 33 34 35 36 37 38 39 40 41 42 43 44 45 46 47 48 49 50

000
ASUS43 KDMX 230406
RWRIA

WEATHER ROUNDUP FOR IOWA
NATIONAL WEATHER SERVICE DES MOINES IA
1100 PM CDT SUN OCT 22 2017

NOTE: "FAIR" INDICATES FEW OR NO CLOUDS BELOW 12,000 FEET WITH NO
SIGNIFICANT WEATHER AND/OR OBSTRUCTIONS TO VISIBILITY.

* - THESE STATIONS ARE NOT NWS STATIONS...THUS NOT UNDER NWS
QUALITY CONTROL.  THEY ALSO DO NOT REPORT WEATHER SUCH
AS PRECIPITATION OR FOG.

IAZ001>003-012>014-020>022-031>034-043>046-230500-
   NORTHWEST IOWA

CITY           SKY/WX    TMP DP  RH WIND       PRES   REMARKS
CHEROKEE *     CLEAR     50  34  54 S9        29.92S
DENISON *      CLEAR     52  34  50 S13       29.96F
LE MARS *      CLOUDY    50  32  50 MISG      29.90F
ORANGE CITY *  CLOUDY    50  36  57 S6        29.90F
SHELDON *      CLEAR     48  34  57 S5        29.88F
SIOUX CITY     CLEAR     42  35  76 E7        29.91F
SPENCER        CLEAR     47  35  63 S9        29.91F
STORM LAKE *   CLEAR     46  34  61 S8        29.93F
$$

IAZ055>058-069>071-079>083-090>094-230500-
   SOUTHWEST IOWA

CITY           SKY/WX    TMP DP  RH WIND       PRES   REMARKS
ATLANTIC *     CLEAR     46  36  66 SW6       30.00R
AUDUBON *      CLEAR     48  36  61 S5        29.99S
CLARINDA *     CLEAR     46  37  71 SW5       30.03F
COUNCIL BLFS * CLEAR     54  32  43 S7        29.97S
CRESTON *      CLEAR     46  39  76 S9        30.02F HAZE
HARLAN  *      CLEAR     46  36  66 S3        30.01S
LAMONI         CLEAR     48  42  80 S8        30.03F
RED OAK *      CLEAR     46  36  66 CALM      30.00S
SHENANDOAH *   CLEAR     46  37  71 CALM      30.01S
$$

IAZ047>049-059>061-072>074-084-230500-
   CENTRAL IOWA

CITY           SKY/WX    TMP DP  RH WIND       PRES   REMARKS
AMES           CLEAR     45  41  86 SE6       30.00F
ANKENY *       CLEAR     48  43  81 SE3       30.02S
BOONE *        CLEAR     46  39  76 S7        29.99S
CHARITON *     PTCLDY    46  43  87 S6        30.02F
DES MOINES     PTCLDY    49  41  74 S8        30.01F
GRINNELL*      PTCLDY    45  41  86 S6        30.04F
KNOXVILLE *    CLOUDY    48  41  76 S7        30.01F
MARSHALLTOWN   CLEAR     46  42  86 S6        30.01F
NEWTON *       CLEAR     45  41  87 S7        30.02F
PELLA *        CLOUDY    48  42  79 SE3       30.04F
PERRY *          N/A     44  35  70 S7        30.00S
$$

IAZ004>006-015-016-023>025-035-036-230500-
   NORTH CENTRAL IOWA

CITY           SKY/WX    TMP DP  RH WIND       PRES   REMARKS
ALGONA *       CLEAR     50  36  57 S14       29.94F
CLARION *      CLEAR     46  36  66 S10       29.97F
ESTHERVILLE    CLEAR     45  36  70 S8        29.91F
FORT DODGE *   CLEAR     51  33  50 S7        29.97F
MASON CITY     CLEAR     41  35  79 S9        29.99F
FOREST CITY *    N/A     43  36  75 S6        29.96F
WEBSTER CITY * CLEAR     46  34  61 S7        29.97S
IOWA FALLS *     N/A     47  41  80 S8        30.01S
$$

IAZ007>011-017>019-026>030-037>042-050>054-066-230500-
   NORTHEAST IOWA

CITY           SKY/WX    TMP DP  RH WIND       PRES   REMARKS
CEDAR RAPIDS   PTCLDY    46  44  93 CALM      30.03F
CHARLES CITY * CLEAR     46  45  93 S8        30.00F
CLINTON *      CLOUDY    49  49 100 NW3       30.04F
DECORAH *      CLOUDY    46  43  87 S5        30.01S
DUBUQUE        PTCLDY    45  44  97 CALM      30.03F
MONTICELLO *   PTCLDY    45  45 100 CALM      30.03F
OELWEIN *      CLOUDY    45  45 100 S6        30.03F
WATERLOO       CLOUDY    46  43  89 S7        30.01F
$$

IAZ064-065-067-068-078-230500-
   EAST CENTRAL IOWA

CITY           SKY/WX    TMP DP  RH WIND       PRES   REMARKS
DAVENPORT      CLOUDY    48  47  96 CALM      30.05F
IOWA CITY      PTCLDY    47  44  90 CALM      30.05F
MUSCATINE *    CLOUDY    48  46  93 W5        30.05S FOG
QUAD CITIES    CLOUDY    51  48  89 CALM      30.04S
$$

IAZ062-063-075>077-085>089-095>099-230500-
   SOUTHEAST IOWA

CITY           SKY/WX    TMP DP  RH WIND       PRES   REMARKS
BURLINGTON     CLOUDY    50  50 100 CALM      30.04S
FAIRFIELD *    CLOUDY    48  46  93 W3        30.04S
FORT MADISON * CLOUDY    50  48  93 CALM      30.05F
KEOKUK *       CLOUDY    50  48  93 CALM      30.04F
OSKALOOSA *      N/A     46  45  95 S5        30.04F
OTTUMWA        PTCLDY    48  46  93 S5        30.04F
WASHINGTON *   CLOUDY    48  48 100 SW3       30.05F
$$

ABBREVIATIONS USED IN REMARKS
   TC - TEMPERATURES IN CELSIUS
  WCI - WIND CHILL INDEX
   HX - HEAT INDEX
  VSB - VISIBILITY
$$





USA.gov is the U.S. government's official web portal to all federal, state and local government web resources and services.